Time,TemperatureF,DewpointF,PressureIn,WindDirection,WindDirectionDegrees,WindSpeedMPH,WindSpeedGustMPH,Humidity,HourlyPrecipIn,Conditions,Clouds,dailyrainin,SoftwareType,DateUTC
2013-03-27 00:04:00,44.2,23.0,30.20,SE,136,11.0,16.0,43,0.00,,,0.00,weatherlink.com 1.10,2013-03-27 05:04:00,
2013-03-27 00:19:00,44.0,23.0,30.20,SE,132,8.0,17.0,44,0.00,,,0.00,weatherlink.com 1.10,2013-03-27 05:19:00,
2013-03-27 00:34:00,44.0,23.0,30.20,SSE,149,14.0,17.0,44,0.00,,,0.00,weatherlink.com 1.10,2013-03-27 05:34:00,
2013-03-27 00:49:00,44.2,24.0,30.20,SSE,149,10.0,19.0,45,0.00,,,0.00,weatherlink.com 1.10,2013-03-27 05:49:00,
2013-03-27 01:04:00,44.0,24.0,30.20,SE,142,5.0,21.0,46,0.00,,,0.00,weatherlink.com 1.10,2013-03-27 06:04:00,
2013-03-27 01:19:00,43.7,24.0,30.19,SE,132,9.0,19.0,46,0.00,,,0.00,weatherlink.com 1.10,2013-03-27 06:19:00,
2013-03-27 01:34:00,43.6,24.0,30.19,SSE,155,15.0,21.0,47,0.00,,,0.00,weatherlink.com 1.10,2013-03-27 06:34:00,
2013-03-27 01:49:00,43.0,24.0,30.18,SSE,163,14.0,18.0,48,0.00,,,0.00,weatherlink.com 1.10,2013-03-27 06:49:00,
2013-03-27 02:04:00,42.5,24.0,30.18,SE,133,11.0,17.0,49,0.00,,,0.00,weatherlink.com 1.10,2013-03-27 07:04:00,
2013-03-27 02:19:00,41.9,25.0,30.17,SSE,148,12.0,17.0,51,0.00,,,0.00,weatherlink.com 1.10,2013-03-27 07:19:00,
2013-03-27 02:34:00,41.5,25.0,30.17,SSE,151,10.0,18.0,52,0.00,,,0.00,weatherlink.com 1.10,2013-03-27 07:34:00,
2013-03-27 02:49:00,41.3,25.0,30.16,SSE,167,11.0,18.0,52,0.00,,,0.00,weatherlink.com 1.10,2013-03-27 07:49:00,
2013-03-27 03:04:00,40.7,25.0,30.16,SE,142,11.0,15.0,54,0.00,,,0.00,weatherlink.com 1.10,2013-03-27 08:04:00,
2013-03-27 03:19:00,40.2,25.0,30.16,SE,133,8.0,15.0,55,0.00,,,0.00,weatherlink.com 1.10,2013-03-27 08:19:00,
2013-03-27 03:34:00,39.8,25.0,30.15,SE,142,12.0,16.0,56,0.00,,,0.00,weatherlink.com 1.10,2013-03-27 08:34:00,
2013-03-27 03:49:00,39.3,25.0,30.15,SE,133,7.0,12.0,57,0.00,,,0.00,weatherlink.com 1.10,2013-03-27 08:49:00,
2013-03-27 04:04:00,38.7,25.0,30.15,SE,138,7.0,11.0,59,0.00,,,0.00,weatherlink.com 1.10,2013-03-27 09:04:00,
2013-03-27 04:19:00,38.4,25.0,30.14,SSE,160,8.0,11.0,60,0.00,,,0.00,weatherlink.com 1.10,2013-03-27 09:19:00,
2013-03-27 04:35:00,38.2,26.0,30.13,SSE,168,6.0,11.0,61,0.00,,,0.00,weatherlink.com 1.10,2013-03-27 09:35:00,
2013-03-27 04:50:00,38.4,25.0,30.12,SSE,153,8.0,13.0,60,0.00,,,0.00,weatherlink.com 1.10,2013-03-27 09:50:00,
2013-03-27 05:05:00,39.0,26.0,30.12,SE,136,9.0,16.0,59,0.00,,,0.00,weatherlink.com 1.10,2013-03-27 10:05:00,
2013-03-27 05:20:00,39.9,26.0,30.12,SE,144,16.0,17.0,58,0.00,,,0.00,weatherlink.com 1.10,2013-03-27 10:20:00,
2013-03-27 05:35:00,40.3,26.0,30.12,SSE,161,13.0,21.0,57,0.00,,,0.00,weatherlink.com 1.10,2013-03-27 10:35:00,
2013-03-27 05:50:00,40.4,26.0,30.13,SSE,155,9.0,19.0,56,0.00,,,0.00,weatherlink.com 1.10,2013-03-27 10:50:00,
2013-03-27 06:05:00,40.5,26.0,30.12,South,171,8.0,20.0,56,0.00,,,0.00,weatherlink.com 1.10,2013-03-27 11:05:00,
2013-03-27 06:20:00,40.4,26.0,30.12,SSE,161,15.0,18.0,56,0.00,,,0.00,weatherlink.com 1.10,2013-03-27 11:20:00,
2013-03-27 06:35:00,40.1,26.0,30.13,SSE,157,11.0,18.0,57,0.00,,,0.00,weatherlink.com 1.10,2013-03-27 11:35:00,
2013-03-27 06:50:00,39.9,26.0,30.12,SSE,149,5.0,19.0,57,0.00,,,0.00,weatherlink.com 1.10,2013-03-27 11:50:00,
2013-03-27 07:05:00,39.5,26.0,30.12,SE,133,10.0,17.0,58,0.00,,,0.00,weatherlink.com 1.10,2013-03-27 12:05:00,
2013-03-27 07:20:00,39.6,25.0,30.13,ESE,105,10.0,15.0,57,0.00,,,0.00,weatherlink.com 1.10,2013-03-27 12:20:00,
2013-03-27 07:35:00,39.5,26.0,30.13,SE,134,14.0,17.0,58,0.00,,,0.00,weatherlink.com 1.10,2013-03-27 12:35:00,
2013-03-27 07:50:00,39.2,25.0,30.14,ESE,121,10.0,16.0,58,0.00,,,0.00,weatherlink.com 1.10,2013-03-27 12:50:00,
2013-03-27 08:05:00,38.9,26.0,30.14,SSE,153,7.0,13.0,60,0.00,,,0.00,weatherlink.com 1.10,2013-03-27 13:05:00,
2013-03-27 08:20:00,39.7,26.0,30.14,SSE,148,9.0,16.0,59,0.00,,,0.00,weatherlink.com 1.10,2013-03-27 13:20:00,
2013-03-27 08:35:00,41.1,27.0,30.13,South,178,6.0,19.0,57,0.00,,,0.00,weatherlink.com 1.10,2013-03-27 13:35:00,
2013-03-27 08:50:00,42.0,27.0,30.14,South,172,8.0,18.0,56,0.00,,,0.00,weatherlink.com 1.10,2013-03-27 13:50:00,
2013-03-27 09:05:00,43.0,27.0,30.14,SE,142,17.0,20.0,54,0.00,,,0.00,weatherlink.com 1.10,2013-03-27 14:05:00,
2013-03-27 09:20:00,44.0,27.0,30.14,South,169,9.0,21.0,52,0.00,,,0.00,weatherlink.com 1.10,2013-03-27 14:20:00,
2013-03-27 09:35:00,44.5,27.0,30.13,SSE,160,7.0,21.0,50,0.00,,,0.00,weatherlink.com 1.10,2013-03-27 14:35:00,
2013-03-27 09:50:00,45.6,27.0,30.12,SSW,192,8.0,24.0,48,0.00,,,0.00,weatherlink.com 1.10,2013-03-27 14:50:00,
2013-03-27 10:05:00,46.8,27.0,30.12,SSE,168,23.0,23.0,47,0.00,,,0.00,weatherlink.com 1.10,2013-03-27 15:05:00,
2013-03-27 10:20:00,47.8,28.0,30.11,SSE,167,16.0,21.0,47,0.00,,,0.00,weatherlink.com 1.10,2013-03-27 15:20:00,
2013-03-27 10:35:00,49.6,28.0,30.11,SSE,160,16.0,20.0,44,0.00,,,0.00,weatherlink.com 1.10,2013-03-27 15:35:00,
2013-03-27 10:50:00,52.2,28.0,30.12,SSE,164,14.0,20.0,40,0.00,,,0.00,weatherlink.com 1.10,2013-03-27 15:50:00,
2013-03-27 11:05:00,54.1,30.0,30.12,SSE,164,9.0,13.0,40,0.00,,,0.00,weatherlink.com 1.10,2013-03-27 16:05:00,
2013-03-27 11:20:00,56.3,30.0,30.11,South,190,8.0,18.0,37,0.00,,,0.00,weatherlink.com 1.10,2013-03-27 16:20:00,
2013-03-27 11:35:00,57.4,31.0,30.12,South,175,3.0,19.0,37,0.00,,,0.00,weatherlink.com 1.10,2013-03-27 16:35:00,
2013-03-27 11:50:00,58.6,32.0,30.11,SW,214,4.0,20.0,36,0.00,,,0.00,weatherlink.com 1.10,2013-03-27 16:50:00,
2013-03-27 12:06:00,59.3,31.0,30.10,South,183,9.0,19.0,35,0.00,,,0.00,weatherlink.com 1.10,2013-03-27 17:06:00,
2013-03-27 12:21:00,60.0,31.0,30.09,WSW,242,10.0,18.0,34,0.00,,,0.00,weatherlink.com 1.10,2013-03-27 17:21:00,
2013-03-27 12:36:00,61.2,32.0,30.09,South,188,10.0,19.0,33,0.00,,,0.00,weatherlink.com 1.10,2013-03-27 17:36:00,
2013-03-27 12:51:00,61.4,33.0,30.08,SSW,201,6.0,16.0,34,0.00,,,0.00,weatherlink.com 1.10,2013-03-27 17:51:00,
2013-03-27 13:06:00,61.7,32.0,30.08,SW,231,7.0,23.0,33,0.00,,,0.00,weatherlink.com 1.10,2013-03-27 18:06:00,
2013-03-27 13:51:00,66.4,36.0,30.05,South,171,15.0,23.0,32,0.00,,,0.00,weatherlink.com 1.10,2013-03-27 18:51:00,
2013-03-27 14:21:00,67.9,34.0,30.04,SE,144,14.0,21.0,29,0.00,,,0.00,weatherlink.com 1.10,2013-03-27 19:21:00,
2013-03-27 14:36:00,68.8,37.0,30.03,SW,234,9.0,17.0,31,0.00,,,0.00,weatherlink.com 1.10,2013-03-27 19:36:00,
2013-03-27 14:51:00,69.9,35.0,30.02,SW,227,8.0,16.0,28,0.00,,,0.00,weatherlink.com 1.10,2013-03-27 19:51:00,
2013-03-27 15:06:00,70.8,36.0,30.01,South,180,13.0,15.0,28,0.00,,,0.00,weatherlink.com 1.10,2013-03-27 20:06:00,
2013-03-27 15:21:00,71.7,37.0,30.00,SE,133,8.0,15.0,28,0.00,,,0.00,weatherlink.com 1.10,2013-03-27 20:21:00,
2013-03-27 15:36:00,71.7,36.0,29.99,SW,219,9.0,16.0,27,0.00,,,0.00,weatherlink.com 1.10,2013-03-27 20:36:00,
2013-03-27 15:51:00,72.6,36.0,29.99,WSW,240,5.0,15.0,26,0.00,,,0.00,weatherlink.com 1.10,2013-03-27 20:51:00,
2013-03-27 16:06:00,73.2,36.0,29.98,SSE,159,14.0,21.0,26,0.00,,,0.00,weatherlink.com 1.10,2013-03-27 21:06:00,
2013-03-27 16:21:00,72.4,36.0,29.97,SW,216,7.0,15.0,27,0.00,,,0.00,weatherlink.com 1.10,2013-03-27 21:21:00,
2013-03-27 16:36:00,73.7,37.0,29.97,South,184,4.0,13.0,26,0.00,,,0.00,weatherlink.com 1.10,2013-03-27 21:36:00,
2013-03-27 16:51:00,74.3,38.0,29.96,SSE,163,5.0,19.0,27,0.00,,,0.00,weatherlink.com 1.10,2013-03-27 21:51:00,
2013-03-27 17:07:00,74.9,38.0,29.96,SSW,203,6.0,15.0,26,0.00,,,0.00,weatherlink.com 1.10,2013-03-27 22:07:00,
2013-03-27 17:22:00,74.8,37.0,29.96,SSE,153,8.0,13.0,25,0.00,,,0.00,weatherlink.com 1.10,2013-03-27 22:22:00,
2013-03-27 17:37:00,75.5,37.0,29.95,SW,217,6.0,16.0,25,0.00,,,0.00,weatherlink.com 1.10,2013-03-27 22:37:00,
2013-03-27 17:52:00,74.9,37.0,29.96,SSE,152,5.0,15.0,25,0.00,,,0.00,weatherlink.com 1.10,2013-03-27 22:52:00,
2013-03-27 18:07:00,75.1,37.0,29.95,ESE,114,8.0,12.0,25,0.00,,,0.00,weatherlink.com 1.10,2013-03-27 23:07:00,
2013-03-27 18:37:00,72.7,39.0,29.96,SE,140,7.0,15.0,29,0.00,,,0.00,weatherlink.com 1.10,2013-03-27 23:37:00,
2013-03-27 18:52:00,72.0,38.0,29.97,SE,134,9.0,14.0,29,0.00,,,0.00,weatherlink.com 1.10,2013-03-27 23:52:00,
2013-03-27 19:07:00,71.0,39.0,29.97,SE,126,5.0,12.0,31,0.00,,,0.00,weatherlink.com 1.10,2013-03-28 00:07:00,
2013-03-27 19:22:00,69.5,38.0,29.97,ESE,119,4.0,9.0,32,0.00,,,0.00,weatherlink.com 1.10,2013-03-28 00:22:00,
2013-03-27 19:37:00,66.5,40.0,29.97,East,101,4.0,8.0,38,0.00,,,0.00,weatherlink.com 1.10,2013-03-28 00:37:00,
2013-03-27 19:52:00,65.3,40.0,29.97,SE,128,4.0,9.0,39,0.00,,,0.00,weatherlink.com 1.10,2013-03-28 00:52:00,
2013-03-27 20:07:00,63.3,40.0,29.98,SE,140,1.0,3.0,42,0.00,,,0.00,weatherlink.com 1.10,2013-03-28 01:07:00,
2013-03-27 20:22:00,61.7,39.0,29.98,ESE,107,1.0,4.0,43,0.00,,,0.00,weatherlink.com 1.10,2013-03-28 01:22:00,
2013-03-27 20:37:00,61.9,40.0,29.98,ESE,121,3.0,5.0,44,0.00,,,0.00,weatherlink.com 1.10,2013-03-28 01:37:00,
2013-03-27 20:52:00,61.3,39.0,29.99,ESE,102,3.0,11.0,44,0.00,,,0.00,weatherlink.com 1.10,2013-03-28 01:52:00,
2013-03-27 21:07:00,60.1,40.0,30.00,SE,127,4.0,8.0,47,0.00,,,0.00,weatherlink.com 1.10,2013-03-28 02:07:00,
2013-03-27 21:22:00,59.5,40.0,30.00,ESE,120,4.0,7.0,49,0.00,,,0.00,weatherlink.com 1.10,2013-03-28 02:22:00,
2013-03-27 21:37:00,58.8,40.0,30.00,SE,144,4.0,8.0,51,0.00,,,0.00,weatherlink.com 1.10,2013-03-28 02:37:00,
2013-03-27 21:52:00,59.6,41.0,30.00,SE,134,8.0,12.0,50,0.00,,,0.00,weatherlink.com 1.10,2013-03-28 02:52:00,
2013-03-27 22:07:00,60.2,41.0,30.01,SE,139,5.0,11.0,49,0.00,,,0.00,weatherlink.com 1.10,2013-03-28 03:07:00,
2013-03-27 22:22:00,58.5,40.0,30.01,ESE,110,4.0,9.0,51,0.00,,,0.00,weatherlink.com 1.10,2013-03-28 03:22:00,
2013-03-27 22:37:00,56.3,40.0,30.02,ESE,106,4.0,7.0,55,0.00,,,0.00,weatherlink.com 1.10,2013-03-28 03:37:00,
2013-03-27 22:52:00,55.8,40.0,30.02,ESE,102,6.0,9.0,56,0.00,,,0.00,weatherlink.com 1.10,2013-03-28 03:52:00,
2013-03-27 23:07:00,55.1,40.0,30.03,SE,132,7.0,11.0,58,0.00,,,0.00,weatherlink.com 1.10,2013-03-28 04:07:00,
2013-03-27 23:22:00,54.4,40.0,30.02,SE,142,5.0,9.0,58,0.00,,,0.00,weatherlink.com 1.10,2013-03-28 04:22:00,
2013-03-27 23:37:00,53.0,40.0,30.03,ESE,108,3.0,8.0,61,0.00,,,0.00,weatherlink.com 1.10,2013-03-28 04:37:00,
2013-03-27 23:52:00,52.9,40.0,30.03,SE,128,5.0,8.0,62,0.00,,,0.00,weatherlink.com 1.10,2013-03-28 04:52:00,